Location: Shenandoah County Park
(38.9356°N, 78.4524°W)
Time: 07:11:52
(UTC-04:00)

Vanguard 1 Rocket - Pass Details

Date: 11 February 2023
Orbit: 652 x 4223 km, 34.3° (Epoch: 26 March)

Event Time Altitude Azimuth Distance (km) Brightness Sun altitude
Rises 10:15:49 0° 234° (SW) 3,385 10.3 28.7°
Reaches altitude 10° 10:17:55 10° 228° (SW) 2,659 9.9 29.0°
Maximum altitude 10:23:57 48° 155° (SSE) 1,691 10.5 29.7°
Drops below altitude 10° 10:35:02 10° 86° (E) 4,788 11.5 30.9°
Sets 10:40:12 0° 82° (E) 6,406 12.0 31.4°
